Regional Weather Roundup
Issued by NWS Grand Forks, ND

Home | Current Version | Previous Version | Graphics & Text | Print | Product List | Glossary On
Versions: 1 2 3 4 5 6 7 8 9 10 11 12 13 14 15 16 17 18 19 20 21 22 23 24 25 26 27 28 29 30 31 32 33 34 35 36 37 38 39 40 41 42 43 44 45 46 47 48 49 50
000
ASUS43 KFGF 191110
RWRFGF
PRAIRIE TO PINES  WEATHER ROUNDUP
NATIONAL WEATHER SERVICE EASTERN NORTH DAKOTA/GRAND FORKS ND
600 AM CDT SAT APR 19 2014

 **SATELLITE DATA USED TO AUGMENT SKY COVER AT AUTOMATED STATIONS**
 *****  WEATHER ACROSS EASTERN NORTH DAKOTA  *****

CITY           SKY/WX    TMP DP  RH WIND       PRES   REMARKS
GRAND FORKS    CLOUDY    46  36  68 S13       29.71F
GRAND FRKS AFB PTCLDY    44  37  74 S9        29.71F
GRAND FRKS NWS   N/A     45 N/A N/A S14         N/A
DEVILS LAKE    CLEAR     37  30  75 W9        29.69S
FARGO          MOCLDY    50  37  61 SE25G39   29.75R
WAHPETON ARPT  CLOUDY    46  36  66 SE20G26   29.79R
$$

 ***** WEATHER ACROSS CENTRAL AND WESTERN NORTH DAKOTA  *****

CITY           SKY/WX    TMP DP  RH WIND       PRES   REMARKS
BISMARCK       PTCLDY    43  35  73 W14       29.81R
MINOT          CLEAR     38  34  85 SW10      29.70S
JAMESTOWN      PTCLDY    44  37  76 NW12      29.74R
MINOT AFB      CLEAR     37  37  99 SW14      29.68S
GARRISON         N/A     38  33  82 SW12      29.75R
WILLISTON      PTCLDY    33  29  85 SW8       29.74R
DICKINSON      CLEAR     37  27  67 W14       29.79S
HETTINGER      CLEAR     34  26  72 SW8       29.87R
$$

 *****  OTHER AIRPORT OBSERVATIONS IN OUR AREA  *****

CITY           SKY/WX    TMP DP  RH WIND       PRES   REMARKS
WALHALLA       FAIR      36  36 100 SE9       29.69F
GRAFTON AIRPOR FAIR      39  34  81 SE8       29.70F
VALLEY CITY AR FAIR      45  41  87 NW8       29.73S
CANDO          FAIR      28  28 100 SW6       29.69F WCI  22
CAVALIER APRT  FAIR      36  32  87 SE5       29.69F
GWINNER        SUNNY     54  43  66 W13       29.77R
ROLLA          FAIR      32  32 100 S6        29.68R
 ***** THE ABOVE OBSERVATIONS ARE NON NWS ARE NOT QUALITY
       CONTROLLED AND MAY MIS-REPORT RAIN FOR SNOW...
$$

  *****  WEATHER ACROSS NORTHERN MINNESOTA  *****

CITY           SKY/WX    TMP DP  RH WIND       PRES   REMARKS
FLAG ISLAND    CLOUDY    34  30  86 SE20G29   29.88F WCI  22
WARROAD        CLOUDY    36  30  80 SE12G24   29.85F
ROSEAU         DRIZZLE   36  30  80 SE16G25   29.81F
HALLOCK        CLOUDY    41  32  70 SE16      29.72F
THF RVR FALLS  CLOUDY    43  32  65 SE13      29.77F
BAUDETTE       CLOUDY    34  30  85 SE18G30   29.90F WCI  23
WASKISH        CLOUDY    36  30  80 SE22G32   29.89F
CROOKSTON      MOCLDY    46  36  66 S23       29.75S
$$
  *****  WEATHER ACROSS CENTRAL AND WEST MINNESOTA  *****

CITY           SKY/WX    TMP DP  RH WIND       PRES   REMARKS
FOSSTON        CLOUDY    45  34  65 SE25G32   29.78F
BEMIDJI        CLOUDY    39  31  74 SE21G28   29.87S
PARK RAPIDS    CLOUDY    41  35  79 SE23      29.88F
ELBOW LAKE     FAIR      47  36  67 SE25G37   29.83F
WADENA         RAIN      41  34  75 SE18G24   29.89F
DETROIT LAKES  DRIZZLE   43  36  75 S20G26    29.82F
MOORHEAD       NOT AVBL
FERGUS FALLS   CLOUDY    48  36  61 S26G35    29.80S
MORRIS MN      CLOUDY    46  37  71 SE28G33   29.82F
STAPLES        LGT RAIN  39  34  81 SE18G30   29.92F
$$
  *****  WEATHER ELSEWHERE ACROSS MINNESOTA  *****

CITY           SKY/WX    TMP DP  RH WIND       PRES   REMARKS
DULUTH         LGT RAIN  34  25  69 E21G29    30.11F WCI  22
INTRNTL FALLS  FRZ RAIN  33  30  88 SE22G30   30.02R WCI  21
ELY            CLOUDY    34  25  69 SE14G21   30.16F WCI  24
CLOQUET        CLOUDY    34  27  75 E13G18    30.08F WCI  25
WHEATON        CLOUDY    50  43  76 SE21G29   29.81R
BRAINERD       LGT RAIN  48  29  47 SE20G35   29.96F
HIBBING        LGT RAIN  35  28  75 SE21      30.05F WCI  24
ALEXANDRIA     CLOUDY    46  35  65 S26G35    29.89R
SAINT CLOUD    CLOUDY    43  30  60 SE17      30.03F
MINNEAPOLIS    MOCLDY    43  32  65 SE21G32   30.12F
$$

  *****  WEATHER ACROSS SOUTH DAKOTA  *****

CITY           SKY/WX    TMP DP  RH WIND       PRES   REMARKS
SIOUX FALLS    MOCLDY    54  39  57 S22       29.94R
BROOKINGS      NOT AVBL
WATERTOWN      MOCLDY    52  41  66 S21G28    29.80S
HURON          MOCLDY    54  41  61 NW24G35   29.82R
SISSETON         N/A     56  43  61 SW21G32   29.77R
ABERDEEN       CLOUDY    50  39  66 N14       29.81R
MITCHELL       PTCLDY    58  43  57 S15       29.85S
PIERRE         MOCLDY    45  35  68 W9        29.88R
MOBRIDGE       CLOUDY    43  35  73 CALM      29.81R
RAPID CITY     MOCLDY    45  18  34 NW14      29.93R
$$

  *****  SOME WEATHER IN NEARBY STATES *****

CITY           SKY/WX    TMP DP  RH WIND       PRES   REMARKS
GLASGOW MT     MOCLDY    38  34  85 W16G26    29.81R
GREAT FALLS MT CLEAR     32  17  54 SW8       29.92R WCI  25
CHEYENNE WY    CLOUDY    48  32  53 W10       29.99S
SCOTTSBLUFF NE CLOUDY    49  39  68 N14       29.96R
OMAHA NE       PTCLDY    55  41  59 S16       30.05R
DES MOINES IA  PTCLDY    51  33  50 SE9       30.16S
DAVENPORT IA   MOCLDY    36  28  73 E9        30.31S
CHICAGO IL     PTCLDY    37  28  70 NE8       30.37R
EAU CLAIRE WI  PTCLDY    37  25  61 SE12G20   30.30R
LA CROSSE WI   CLEAR     38  26  62 SE8       30.33R
$$

  *****  SOME NATIONAL WEATHER *****

CITY           SKY/WX    TMP DP  RH WIND       PRES   REMARKS
LA GUARDIA NY  MOCLDY    43  34  70 SW5       30.25R
RALEIGH NC     LGT RAIN  47  44  90 NE5       30.18R
ATLANTA GA     LGT RAIN  53  51  93 N12       30.07R FOG
NEW ORLEANS LA PTCLDY    56  52  86 N6        30.13R
OKLAHOMA CITY  MOCLDY    50  42  74 SE3       30.13R
ALBUQUERQUE NM PTCLDY    53  39  59 E3        30.09S
SALT LAKE CITY PTCLDY    46  46 100 W5        29.98R
LOS ANGELES CA MOCLDY    59  53  80 CALM      29.94S
BOISE ID       MOCLDY    45  23  42 SE10      29.95S
SEATTLE WA     PTCLDY    46  35  65 E6        29.81F
$$

*** WEATHER ACROSS MANITOBA...SASKATCHEWAN AND ONTARIO ***
                ***ONTARIO***

CITY           SKY/WX    TMP DP  RH WIND       PRES   REMARKS
GERALDTON      MOCLDY    18  14  86 CALM      30.43S
THUNDER BAY    CLOUDY    28  27  93 E12       30.39F WCI  18
SIOUX LOOKOUT  CLOUDY    34  19  55 S13G22    30.16F WCI  25
TORONTO        CLEAR     34  28  80 N9        30.41R
BIG TROUT LK   CLEAR     23   9  54 SE14      30.31F WCI  11
PICKLE LAKE    MOCLDY    25   9  50 SE10      30.28  WCI  15
DRYDEN         LGT SNOW  30  30 100 SE21G31   30.08F VSB 3/4 WCI  17
KENORA         FLURRIES  32  30  93 SE24G37   29.92F WCI  19
$$
                *** MANITOBA***

CITY           SKY/WX    TMP DP  RH WIND       PRES   REMARKS
BRANDON        LGT RAIN  34  32  93 SE3       29.66F VSB 0
DAUPHIN        CLOUDY    34  32  93 SE16      29.65F FOG     WCI  23
ISLAND LAKE    CLOUDY    30  12  47 E7        30.06F WCI  23
PILOT MOUND      N/A     36  32  87 S7          N/A
THE PAS        LGT SNOW  30  30 100 E14G21    29.80F VSB 1   WCI  20
THOMPSON       MOCLDY    27  12  54 E8        30.05F WCI  18
WINNIPEG       CLOUDY    37  30  75 SE21      29.73F
LYNN LAKE      CLOUDY    21   5  49 E8        30.00F WCI  12
CHURCHILL      PTCLDY     7   5  92 S8        30.30F WCI  -6
GILLAM         PTCLDY    16  10  79 E6        30.20F WCI   7
$$
                ***SASKATCHEWAN***

CITY           SKY/WX    TMP DP  RH WIND       PRES   REMARKS
ESTEVAN        PTCLDY    34  32  93 SW12      29.65S
KINDERSLEY     CLOUDY    32  30  93 NW12      29.79R FOG     WCI  23
LLOYDMINSTER   CLOUDY    30  30 100 NW7       29.79R FOG     WCI  23
PRINCE ALBERT  FLURRIES  28  27  93 N8        29.74S WCI  20
REGINA         LGT RAIN  36  36 100 W15G23    29.62R
YORKTON        CLOUDY    34  32  93 SE9       29.55F FOG
N. BATTLEFORD  CLOUDY    30  28  93 N8        29.80R WCI  23
LA RONGE       LGT SNOW  28  27  93 NE10      29.85F WCI  19
SASKATOON      CLOUDY    28  27  93 N14       29.75R WCI  17
SWIFT CURRENT  LGT SNOW  32  30  93 NW22G31   29.74R WCI  19
$$
NOTE: THESE ARE AUTOMATED STATIONS WITH LIMITED QUALITY CONTROL
      "FAIR" INDICATES FEW OR NO CLOUDS BELOW 12,000 FEET WITH NO
      SIGNIFICANT WEATHER AND/OR OBSTRUCTIONS TO VISIBILITY.
      SKY/WX - SKY CONDITION AND SIGNIFICANT WEATHER.
      TMP - AIR TEMPERATURE.    DP   - DEWPOINT TEMPERATURE.
      RH  - RELATIVE HUMIDITY.  PRES - PRESSURE.
      HX  - HEAT INDEX.         WCI  - WIND CHILL INDEX.
$



USA.gov is the U.S. government's official web portal to all federal, state and local government web resources and services.